Simultaneous Nadir Overpasses (SNOs) Predictions

Prediction of SNOs between NOAA-15 and METOP-C Satellite Orbit:

Table of predicted SNOs for the next 14.0 days since TLE Epoch: 11/13/2021
Index Date (NOAA-15) Time (NOAA-15) Lat,Lon (NOAA-15) SZA (NOAA-15 ) Date (METOP-C) Time (METOP-C) Lat,Lon (METOP-C) SZA (METOP-C ) Distance(km) Time Diff (sec)
1 11/26/2021 20:19:01 -81.03, 93.11 75.82 11/26/2021 20:17:54 -81.02, 93.11 75.86 1.47 67
2 11/26/2021 21:09:35 81.02, -99.19 104.22 11/26/2021 21:08:34 81.03, -99.36 104.18 3.21 61
3 11/26/2021 22:00:03 -81.03, 67.88 75.80 11/26/2021 21:59:15 -81.03, 67.99 75.81 1.98 48
4 11/26/2021 22:50:38 81.03,-124.79 104.21 11/26/2021 22:49:56 81.02,-124.85 104.17 1.61 42
5 11/26/2021 23:41:05 -81.03, 42.65 75.79 11/26/2021 23:40:37 -81.02, 42.51 75.82 2.64 28
6 11/27/2021 00:31:40 81.03,-150.02 104.22 11/27/2021 00:31:17 81.03,-149.96 104.22 0.96 23
7 11/27/2021 01:22:07 -81.03, 17.42 75.78 11/27/2021 01:21:58 -81.03, 17.39 75.78 0.63 9
8 11/27/2021 02:12:42 81.03,-175.25 104.23 11/27/2021 02:12:38 81.04,-175.08 104.26 3.13 4



Historial Predications of SNOs between NOAA-15 and METOP-C
